J Percy Priest Observed Data For Previous 48 Hours

Caption
Day and Hour Reservoir Elevation (behind dam)* Tailwater Elevation (below dam)* Average Hourly Discharge*
3/22/2019 1 AM CDT 484.79 403.40 0
3/22/2019 2 AM CDT 484.81 403.27 0
3/22/2019 3 AM CDT 484.81 403.14 0
3/22/2019 4 AM CDT 484.82 403.08 0
3/22/2019 5 AM CDT 484.82 403.03 0
3/22/2019 6 AM CDT 484.76 403.90 4,900
3/22/2019 7 AM CDT 484.78 403.67 4,900
3/22/2019 8 AM CDT 484.72 403.95 4,900
3/22/2019 9 AM CDT 484.70 404.01 4,900
3/22/2019 10 AM CDT 484.66 404.09 4,900
3/22/2019 11 AM CDT 484.63 404.06 4,900
3/22/2019 12 PM CDT 484.61 404.18 4,900
3/22/2019 1 PM CDT 484.61 403.34 0
3/22/2019 2 PM CDT 484.61 403.33 0
3/22/2019 3 PM CDT 484.61 403.34 0
3/22/2019 4 PM CDT 484.60 403.22 0
3/22/2019 5 PM CDT 484.62 403.18 0
3/22/2019 6 PM CDT 484.62 403.13 0
3/22/2019 7 PM CDT 484.59 403.75 4,900
3/22/2019 8 PM CDT 484.57 403.80 4,900
3/22/2019 9 PM CDT 484.55 403.95 4,900
3/22/2019 10 PM CDT 484.53 403.95 4,900
3/22/2019 11 PM CDT 484.51 403.95 4,900
3/23/2019 12 AM CDT 484.50 403.50 0
3/23/2019 1 AM CDT 484.50 403.25 0
3/23/2019 2 AM CDT 484.50 403.15 0
3/23/2019 3 AM CDT 484.50 403.10 0
3/23/2019 4 AM CDT 484.50 403.05 0
3/23/2019 5 AM CDT 484.50 403.00 0
3/23/2019 6 AM CDT 484.50 403.00 0
3/23/2019 7 AM CDT 484.53 402.99 0
3/23/2019 8 AM CDT 484.49 403.79 4,900
3/23/2019 9 AM CDT 484.48 403.75 4,900
3/23/2019 10 AM CDT 484.47 402.98 0
3/23/2019 11 AM CDT 484.47 403.16 0
3/23/2019 12 PM CDT 484.45 402.96 0
3/23/2019 1 PM CDT 484.48 402.77 0
3/23/2019 2 PM CDT 484.49 405.54 0
3/23/2019 3 PM CDT 484.49 402.37 0
3/23/2019 4 PM CDT 484.49 402.16 0
3/23/2019 5 PM CDT 484.49 402.12 0
3/23/2019 6 PM CDT 484.50 402.07 0
3/23/2019 7 PM CDT 484.51 401.93 0
3/23/2019 8 PM CDT 484.51 401.88 0
3/23/2019 9 PM CDT 484.52 401.77 0
3/23/2019 10 PM CDT 484.52 401.77 0
3/23/2019 11 PM CDT 484.52 401.77 0
3/24/2019 12 AM CDT 484.52 401.77 0

Elevations are in feet above sea level. Discharges are in cubic feet per second and are reported at the end of the hour.